RESOURCESAT 2

Satellite information

Favourite Embed

Satellite Type and Status

PAYLOADIN ORBIT

Key statistics

Satellite RESOURCESAT 2 at a glance.

Uptime

5246

Days in orbit

Revolutions

≈ 14.2

Per day

Orbit

SSO

Sun Synchronous Orbit

Inclination

98.8

Latest

Satellite identification and parameters

Extended collection of information and parameters for RESOURCESAT 2.

Object identification

Identified? True

Debris? False

Object name: RESOURCESAT 2

International designator: 2011-015A

Object number (NORAD): 37387

Object ID (CCSDS): 37387

Country: INDIA (IND)

Current information (Y/N): Y

RCS size: LARGE

Orbital parameters

Period: 101.296 minutes

Inclination: 98.8025 deg

SMA: 7198.142 km

Apoapsis: 823.958 km

Periapsis: 816.055 km

RAAN: 304.8031 deg

Eccentricy: 0.00054899

Argument of periapsis: 350.9354 deg

Mean anomaly: 9.1723 deg

Mean motion: 14.21582856 rev/day

Mean motion (dot): 0.00000143 rev/day2

B* drag term: 0.000085382961 1/REarth

Two-line elements (TLE)

Creation date: Aug. 29, 2025, 2:15 a.m.

Reference frame: TEME

Reference center: EARTH

Epoch: Aug. 28, 2025, 8:36 p.m. UTC

TLE line 0: 0 RESOURCESAT 2

TLE line 1: 1 37387U 11015A 25240.85891158 .00000143 00000-0 85383-4 0 9993

TLE line 2: 2 37387 98.8025 304.8031 0005490 350.9354 9.1723 14.21582856744647

Live tracking on map

Real-time ground track for satellite RESOURCESAT 2.

In-orbit conjunctions

There are no conjunctions computed for RESOURCESAT 2, at the moment. Check back to stay up to date, as we update our databases every day.

Go to all conjunctions

Associated space launch

RESOURCESAT 2 was lifted into orbit during the mission ‘PSLV | Resourcesat-2’, on board a PSLV space rocket.

The launch took place on April 20, 2011, 4:42 a.m. from Satish Dhawan Space Centre First Launch Pad.

For more information about the launch, click the button.

Launch to space PSLV | Resourcesat-2
PSLV | Resourcesat-2

Agency: N/A

Status: Launch Successful

Launch date: April 20, 2011, 4:42 a.m. UTC

Rocket: PSLV

Launch pad: Satish Dhawan Space Centre First Launch Pad

Location: Satish Dhawan Space Centre, India

...

Latest news about this satellite

There are no fresh news available about this satellite. Check back as we update our databases every day.


Newsletter sign-up

Weekly statistics, charts and insights to help you stay on top of the space industry.